User: anonymous   Login
Location: Unspecified
(0.0000°N, 0.0000°E)
Time: 08:38:32
(UTC+00:00)
Language:

PRISM - Orbit

View from above orbital plane
View from above orbital plane
View from above satellite
View from above satellite

Ground track
Ground track

The orbit data is extracted from the following two-line orbital elements,

1 33493U 09002B   18016.68504289  .00000230  00000-0  26092-4 0  9999
2 33493  98.1454 272.8419 0016554  94.5478 265.7629 14.96041939487693
Epoch (UTC): 16 January 2018 16:26:27
Eccentricity: 0.0016554
inclination: 98.1454°
perigee height: 567 km
apogee height: 590 km
right ascension of ascending node: 272.8419°
argument of perigee: 94.5478°
revolutions per day: 14.96041939
mean anomaly at epoch: 265.7629°
orbit number at epoch: 48769

The dashed part of the orbit path shows where the satellite is in the earth's shadow,  

DLR